Location: *
(33.3200°N, 8.3381°W)
Time: 16:56:10
(UTC+00:00)

Cosmos 2058 Rocket - Pass Details

Date: 09 April 2020
Orbit: 610 x 640 km, 82.5° (Epoch: 26 May)

Event Time Altitude Azimuth Distance (km) Brightness Sun altitude
Rises 20:26:17 0° 191° (S) 2,926 6.4 -18.1°
Reaches altitude 10° 20:28:31 10° 194° (SSW) 2,022 5.6 -18.5°
Maximum altitude 20:32:59 68° 277° (W) 690 3.4 -19.4°
Drops below altitude 10° 20:37:29 10° 1° (N) 2,033 6.0 -20.2°
Sets 20:39:45 0° 4° (N) 2,943 6.8 -20.7°
